| time (UTC) | temp C | wind direction | speed KPH | gust KPH | rain 1hr cm | rain 24hr cm | rain mn cm | humidity % | barometer mb |
| 20260506150051 | 15 | 236 | 1.6 | 6.4 | 0.13 | 0.41 | 0.41 | 58 | 1007.1 |
| 20260506144555 | 15 | 225 | 3.2 | 6.4 | 0.15 | 0.36 | 0.36 | 57 | 1007.1 |
| 20260506143050 | 15 | 233 | 0.0 | 4.8 | 0.20 | 0.36 | 0.36 | 57 | 1007.2 |
| 20260506141548 | 14 | 233 | 0.0 | 3.2 | 0.20 | 0.30 | 0.30 | 56 | 1007.3 |
| 20260506140046 | 14 | 233 | 1.6 | 6.4 | 0.23 | 0.28 | 0.28 | 56 | 1007.6 |
| 20260506134546 | 15 | 233 | 0.0 | 8.0 | 0.18 | 0.20 | 0.20 | 56 | 1007.8 |
| 20260506133058 | 15 | 232 | 1.6 | 6.4 | 0.15 | 0.15 | 0.15 | 55 | 1007.9 |
| 20260506131545 | 15 | 233 | 3.2 | 11.3 | 0.10 | 0.10 | 0.10 | 56 | 1008.1 |
| 20260506130044 | 15 | 232 | 4.8 | 9.7 | 0.05 | 0.05 | 0.05 | 57 | 1008.1 |
| 20260506124543 | 15 | 223 | 3.2 | 12.9 | 0.03 | 0.03 | 0.03 | 57 | 1007.8 |
| 20260506123044 | 16 | 228 | 3.2 | 11.3 | 0.00 | 0.00 | 0.00 | 54 | 1007.5 |
| 20260506121537 | 16 | 221 | 3.2 | 8.0 | 0.00 | 0.00 | 0.00 | 51 | 1007.6 |
| 20260506120038 | 16 | 227 | 0.0 | 3.2 | 0.00 | 0.00 | 0.00 | 50 | 1007.6 |
| 20260506114540 | 16 | 227 | 1.6 | 6.4 | 0.00 | 0.00 | 0.00 | 50 | 1007.7 |
| 20260506113035 | 16 | 238 | 1.6 | 4.8 | 0.00 | 0.00 | 0.00 | 49 | 1007.5 |
| 20260506111534 | 16 | 238 | 0.0 | 6.4 | 0.00 | 0.00 | 0.00 | 48 | 1007.5 |
| 20260506110040 | 16 | 237 | 3.2 | 8.0 | 0.00 | 0.00 | 0.00 | 47 | 1007.6 |
| 20260506104555 | 16 | 220 | 4.8 | 9.7 | 0.00 | 0.00 | 0.00 | 47 | 1007.4 |
| 20260506103028 | 16 | 229 | 1.6 | 4.8 | 0.00 | 0.00 | 0.00 | 49 | 1007.0 |
| 20260506101526 | 15 | 229 | 1.6 | 4.8 | 0.00 | 0.00 | 0.00 | 50 | 1007.2 |
| 20260506100025 | 15 | 229 | 0.0 | 0.0 | 0.00 | 0.00 | 0.00 | 50 | 1007.2 |
| 20260506094532 | 15 | 229 | 1.6 | 6.4 | 0.00 | 0.00 | 0.00 | 51 | 1007.4 |
| 20260506093024 | 15 | 229 | 0.0 | 0.0 | 0.00 | 0.00 | 0.00 | 50 | 1007.1 |
| 20260506091523 | 15 | 229 | 0.0 | 0.0 | 0.00 | 0.00 | 0.00 | 50 | 1007.1 |
| 20260506090021 | 15 | 229 | 0.0 | 0.0 | 0.00 | 0.00 | 0.00 | 50 | 1007.5 |
| 20260506084521 | 15 | 229 | 0.0 | 0.0 | 0.00 | 0.05 | 0.00 | 50 | 1007.5 |
| 20260506083035 | 15 | 229 | 0.0 | 0.0 | 0.00 | 0.05 | 0.00 | 49 | 1007.7 |
| 20260506081520 | 15 | 229 | 0.0 | 1.6 | 0.00 | 0.05 | 0.00 | 48 | 1007.4 |
| 20260506073016 | 15 | 229 | 0.0 | 4.8 | 0.00 | 0.05 | 0.00 | 48 | 1007.8 |
| 20260506071513 | 15 | 229 | 0.0 | 0.0 | 0.00 | 0.05 | 0.00 | 50 | 1007.8 |
| 20260506061508 | 13 | 229 | 0.0 | 0.0 | 0.00 | 0.05 | 0.00 | 50 | 1008.1 |
| 20260506044613 | 14 | 229 | 0.0 | 0.0 | 0.00 | 0.05 | 0.00 | 50 | 1008.5 |
| 20260506043059 | 15 | 229 | 0.0 | 0.0 | 0.00 | 0.05 | 0.00 | 50 | 1008.7 |
| 20260506041557 | 15 | 229 | 0.0 | 0.0 | 0.00 | 0.05 | 0.00 | 50 | 1008.7 |
| 20260506040055 | 15 | 360 | 0.0 | 0.0 | 0.00 | 0.05 | 0.00 | 50 | 1008.7 |
| 20260506034600 | 16 | 227 | 0.0 | 0.0 | 0.00 | 0.05 | 0.05 | 50 | 1008.8 |
| 20260506033054 | 16 | 229 | 0.0 | 1.6 | 0.00 | 0.05 | 0.05 | 48 | 1008.6 |
| 20260506031557 | 17 | 229 | 0.0 | 3.2 | 0.00 | 0.05 | 0.05 | 47 | 1008.7 |
| 20260506030053 | 17 | 229 | 0.0 | 3.2 | 0.00 | 0.05 | 0.05 | 47 | 1008.7 |
| 20260506024552 | 17 | 229 | 1.6 | 3.2 | 0.00 | 0.05 | 0.05 | 47 | 1008.6 |
| 20260506023054 | 17 | 360 | 0.0 | 0.0 | 0.00 | 0.05 | 0.05 | 45 | 1008.7 |
| 20260506021556 | 18 | 360 | 0.0 | 0.0 | 0.00 | 0.05 | 0.05 | 43 | 1008.8 |
| 20260506020050 | 20 | 229 | 1.6 | 4.8 | 0.00 | 0.05 | 0.05 | 40 | 1008.7 |
| 20260506014550 | 20 | 229 | 0.0 | 3.2 | 0.00 | 0.05 | 0.05 | 39 | 1008.7 |
| 20260506013049 | 20 | 229 | 1.6 | 4.8 | 0.00 | 0.05 | 0.05 | 38 | 1008.5 |
| 20260506011552 | 20 | 229 | 0.0 | 3.2 | 0.00 | 0.05 | 0.05 | 40 | 1008.3 |
| 20260506010054 | 20 | 229 | 0.0 | 3.2 | 0.00 | 0.05 | 0.05 | 38 | 1008.0 |
| 20260506004546 | 21 | 229 | 0.0 | 3.2 | 0.00 | 0.05 | 0.05 | 37 | 1007.9 |
| 20260506003047 | 21 | 229 | 0.0 | 3.2 | 0.00 | 0.05 | 0.05 | 37 | 1007.9 |
| 20260506001547 | 21 | 229 | 0.0 | 3.2 | 0.00 | 0.05 | 0.05 | 36 | 1007.8 |
| 20260506000047 | 22 | 229 | 0.0 | 4.8 | 0.00 | 0.05 | 0.05 | 34 | 1007.6 |
| 20260505234606 | 22 | 229 | 1.6 | 11.3 | 0.00 | 0.05 | 0.05 | 34 | 1007.6 |
| 20260505233049 | 21 | 238 | 3.2 | 11.3 | 0.00 | 0.05 | 0.05 | 35 | 1007.6 |
| 20260505231544 | 22 | 215 | 1.6 | 8.0 | 0.00 | 0.05 | 0.05 | 35 | 1007.4 |
| 20260505230048 | 21 | 236 | 3.2 | 6.4 | 0.00 | 0.05 | 0.05 | 37 | 1007.3 |
| 20260505224543 | 21 | 236 | 3.2 | 6.4 | 0.00 | 0.05 | 0.05 | 37 | 1007.2 |
| 20260505223051 | 21 | 234 | 1.6 | 6.4 | 0.00 | 0.05 | 0.05 | 38 | 1006.9 |
| 20260505221542 | 21 | 234 | 1.6 | 6.4 | 0.00 | 0.05 | 0.05 | 39 | 1007.1 |
| 20260505220046 | 21 | 234 | 1.6 | 6.4 | 0.00 | 0.05 | 0.05 | 38 | 1007.0 |
| 20260505214553 | 22 | 208 | 1.6 | 6.4 | 0.00 | 0.05 | 0.05 | 36 | 1007.1 |
| 20260505213042 | 23 | 221 | 1.6 | 8.0 | 0.00 | 0.05 | 0.05 | 35 | 1007.0 |
| 20260505211548 | 23 | 186 | 3.2 | 12.9 | 0.00 | 0.05 | 0.05 | 32 | 1006.9 |
| 20260505210038 | 23 | 250 | 12.9 | 32.2 | 0.00 | 0.05 | 0.05 | 32 | 1007.1 |
| 20260505204539 | 24 | 250 | 9.7 | 24.1 | 0.00 | 0.05 | 0.05 | 27 | 1006.5 |
| 20260505203050 | 24 | 235 | 9.7 | 30.6 | 0.00 | 0.05 | 0.05 | 25 | 1006.4 |
| 20260505201537 | 24 | 208 | 12.9 | 22.5 | 0.00 | 0.05 | 0.05 | 25 | 1006.4 |
| 20260505200039 | 24 | 237 | 9.7 | 24.1 | 0.00 | 0.05 | 0.05 | 25 | 1006.3 |
| 20260505194539 | 25 | 234 | 8.0 | 27.4 | 0.00 | 0.05 | 0.05 | 25 | 1006.4 |
| 20260505193033 | 25 | 171 | 12.9 | 30.6 | 0.00 | 0.05 | 0.05 | 25 | 1006.3 |
| 20260505191535 | 24 | 218 | 9.7 | 33.8 | 0.00 | 0.05 | 0.05 | 25 | 1006.6 |
| 20260505190029 | 25 | 235 | 17.7 | 32.2 | 0.00 | 0.05 | 0.05 | 25 | 1006.8 |
| 20260505184541 | 25 | 239 | 20.9 | 40.2 | 0.00 | 0.05 | 0.05 | 23 | 1007.2 |
| 20260505183036 | 25 | 229 | 14.5 | 22.5 | 0.00 | 0.05 | 0.05 | 27 | 1007.4 |
| 20260505181523 | 25 | 237 | 16.1 | 35.4 | 0.00 | 0.05 | 0.05 | 25 | 1007.7 |
| 20260505180021 | 24 | 263 | 11.3 | 27.4 | 0.00 | 0.05 | 0.05 | 29 | 1007.9 |
| 20260505174521 | 24 | 245 | 14.5 | 43.5 | 0.00 | 0.05 | 0.05 | 27 | 1008.1 |
| 20260505173017 | 25 | 218 | 8.0 | 24.1 | 0.00 | 0.05 | 0.05 | 29 | 1007.8 |
| 20260505171515 | 25 | 188 | 9.7 | 24.1 | 0.00 | 0.05 | 0.05 | 31 | 1008.0 |
| 20260505170013 | 25 | 200 | 8.0 | 24.1 | 0.00 | 0.05 | 0.05 | 31 | 1008.0 |
| 20260505164508 | 25 | 237 | 11.3 | 24.1 | 0.00 | 0.05 | 0.05 | 31 | 1008.3 |
| 20260505163006 | 24 | 234 | 9.7 | 22.5 | 0.00 | 0.05 | 0.05 | 33 | 1008.5 |
| 20260505161601 | 23 | 205 | 8.0 | 25.7 | 0.00 | 0.05 | 0.05 | 35 | 1008.5 |
| 20260505153053 | 23 | 208 | 11.3 | 25.7 | 0.00 | 0.05 | 0.05 | 35 | 1008.8 |
| 20260505151548 | 22 | 242 | 9.7 | 24.1 | 0.00 | 0.05 | 0.05 | 38 | 1009.1 |